sat.trackr.live / text

‹ back to catalog

STARLINK-5515

NORAD 56884 · 2023-083J

PAYLOAD ACTIVE UNKNOWN

§ Identity

Operator
Country
US
Launch date
2023-06-12
Launch site
AFETR
Launch vehicle
Mass (kg)
RCS (m²)

Purposes: comms

External: N2YO · Heavens-Above · Gunter

§ Orbital elements

Epoch: 2026-09-19T22:41:17.651616Z

Period
94.27 min
Inclination
43.0015°
Eccentricity
0.0001544
Mean motion
15.27576410 rev/d
Perigee alt
482.0 km
Apogee alt
484.1 km
Semi-major
6,861.2 km
B*
3.3326e-5
RAAN
67.7681°
Arg perigee
253.8051°
Mean anomaly
106.2631°
Rev number
18,134

§ Raw data

STARLINK-55151 56884U 23083J   26262.94534319  .00000655  00000+0  33326-4 0  99992 56884  43.0015  67.7681 0001544 253.8051 106.2631 15.27576410181343

JSON: /api/v1/satellites/56884 · /tle

For live sub-satellite position, see the globe view (requires WebGL).

§ Visibility from observer

Set your observer location to see the next 7 days of passes ≥ 10°. The values pass through the URL so the page stays shareable.

No JS? Fill the form by hand. The geolocation button needs JavaScript.